NOAA 17 DEB, 48737

Orbit data source: Space-Track

NOAA 17 DEB, 48737 is space debris in SSO originally from a launch on Mon, 24 Jun 2002 UTC launched from the Air Force Western Test Range (AFWTR). Debris objects in space refer to the collection of defunct objects orbiting the Earth. Examples of debris include non-operational satellites, rocket bodies, and fragments generated from explosions, collisions, or faulty payload assembly.

Loading next visibility...
Identifier
48737, 2002-032BW
Orbit
SSO
Last TLE update
16 hours ago
Origin
Manufacturer
Unknown
Mission
Spacecraft
Bus & Motor
Unknown
Mass
Unknown
Launch date (UTC)
2002-06-24 (23 years ago)
Launch vehicle
Unknown
Launch site
Air Force Western Test Range (AFWTR)
Object type
Payload
Rocket body
Debris
Shape & HBR
Unknown
Radar Cross Section
Small (<0.1 m²)

Expand to show TLE details & history

TLE from 16 hours ago
0 NOAA 17 DEB
1 48737U 02032BW  25198.50458769  .00017205  00000-0  21003-2 0  9998
2 48737  98.7382 221.2478 0020154 253.3099 106.5900 14.83244078226111
Epoch: 2025-07-17T12:06Z
TLE epoch observation values (Epoch: 2025-07-17T12:06:36.376Z)
Latitude
-0.00001°
Longitude
104.02679°
Altitude
626.156 km
Speed
7.543 km/s
True Right ascension
14h 44m 59s
True Declination
0° 00' 00"
Sunlit
Object was in daylight at epoch
Visualization orbit readout
Latitude
62.04994°
Longitude
88.03175°
Altitude
643.612 km
Speed
7.535 km/s
Apparent Right ascension
08h 07m 33s
Apparent Declination
27° 39' 56"
Sunlit
Object is in daylight
Visualization observer readout
Local Sidereal Time
17:19:37
Azimuth
322.731° NNW
Elevation
-11.947°
Doppler factor
1
Orbital elements
Apogee altitude
630.275 km
Perigee altitude
602.083 km
Semi-major axis
6,994.316 km
Eccentricity
0.00202
Inclination
98.7382°
RAAN
221.2478°
Arg. of periapsis
253.3099°
True anomaly
106.81117°
Mean anomaly
106.59°
Eccentric anomaly
106.7006°
Mean motion
3.71044 °/min
Orbital period
97.02 mins
BSTAR
0.0021003
Loading maneuver chart data...
Loading SW <> Apogee altitude chart data...
Loading historical data...
Loading historical data...
Loading historical data...
Loading historical data...
Loading historical data...
Loading historical data...
Loading historical data...
|